FW3157 Weather Reports


Display with metric or nautical units.
time (UTC)temp
F
wind
direction
speed
MPH
gust
MPH
rain 1hr
in
rain 24hr
in
rain mn
in
humidity
%
barometer
mb
20260901115123 88 276 5.0 12.0 0.00 0.00 0.00 53 1014.7
20260901114620 88 259 5.0 12.0 0.00 0.00 0.00 53 1014.7
20260901114120 88 267 5.0 10.0 0.00 0.00 0.00 54 1014.7
20260901113621 88 226 4.0 10.0 0.00 0.00 0.00 56 1014.7
20260901113121 87 270 4.0 9.0 0.00 0.00 0.00 58 1014.7
20260901112845 87 231 4.0 10.0 0.00 0.00 0.00 56 1014.8
20260901112115 87 299 3.0 10.0 0.00 0.00 0.00 59 1014.7
20260901111612 87 268 3.0 8.0 0.00 0.00 0.00 58 1014.8
20260901111113 87 280 5.0 11.0 0.00 0.00 0.00 61 1014.8
20260901110613 86 236 6.0 11.0 0.00 0.00 0.00 61 1014.8
20260901110113 86 267 5.0 11.0 0.00 0.00 0.00 60 1014.9
20260901105613 87 266 4.0 11.0 0.00 0.00 0.00 59 1014.9
20260901105113 87 217 4.0 11.0 0.00 0.00 0.00 59 1014.9
20260901104612 87 236 4.0 11.0 0.00 0.00 0.00 60 1014.9
20260901104112 87 231 5.0 11.0 0.00 0.00 0.00 62 1015.0
20260901103613 87 254 4.0 11.0 0.00 0.00 0.00 60 1015.1
20260901103113 87 284 3.0 9.0 0.00 0.00 0.00 58 1015.0
20260901102612 87 265 3.0 8.0 0.00 0.00 0.00 55 1015.1
20260901102110 87 204 3.0 8.0 0.00 0.00 0.00 57 1015.2
20260901101611 87 276 4.0 9.0 0.00 0.00 0.00 57 1015.2
20260901101110 86 274 4.0 10.0 0.00 0.00 0.00 55 1015.3
20260901100611 86 212 4.0 10.0 0.00 0.00 0.00 55 1015.4
20260901100107 85 245 5.0 9.0 0.00 0.00 0.00 54 1015.4
20260901095606 85 234 5.0 9.0 0.00 0.00 0.00 57 1015.4
20260901095107 85 324 5.0 9.0 0.00 0.00 0.00 56 1015.3
20260901094607 85 243 5.0 9.0 0.00 0.00 0.00 56 1015.3
20260901094107 85 207 5.0 9.0 0.00 0.00 0.00 59 1015.3
20260901093814 85 295 3.0 7.0 0.00 0.00 0.00 59 1015.2
20260901093656 85 262 4.0 8.0 0.00 0.00 0.00 60 1015.2
20260901092607 85 222 3.0 6.0 0.00 0.00 0.00 57 1015.3
20260901092107 85 255 2.0 5.0 0.00 0.00 0.00 59 1015.4
20260901091602 85 295 2.0 6.0 0.00 0.00 0.00 57 1015.5
20260901091102 84 231 3.0 7.0 0.00 0.00 0.00 56 1015.5
20260901090602 84 295 4.0 7.0 0.00 0.00 0.00 57 1015.5
20260901085602 84 350 3.0 6.0 0.00 0.00 0.00 58 1015.5
20260901085104 84 281 3.0 7.0 0.00 0.00 0.00 58 1015.5
20260901084103 84 280 3.0 6.0 0.00 0.00 0.00 60 1015.4
20260901083604 84 288 3.0 5.0 0.00 0.00 0.00 60 1015.4
20260901083059 84 270 2.0 6.0 0.00 0.00 0.00 58 1015.4
20260901082600 84 262 2.0 6.0 0.00 0.00 0.00 60 1015.4
20260901082057 83 296 2.0 4.0 0.00 0.00 0.00 63 1015.4
20260901081557 83 258 2.0 5.0 0.00 0.00 0.00 65 1015.4
20260901081056 83 276 3.0 5.0 0.00 0.00 0.00 65 1015.4
20260901080557 82 293 3.0 5.0 0.00 0.00 0.00 66 1015.5
20260901080057 82 293 3.0 5.0 0.00 0.00 0.00 68 1015.5
20260901075554 82 256 3.0 6.0 0.00 0.00 0.00 67 1015.5
20260901075055 82 238 3.0 7.0 0.00 0.00 0.00 67 1015.5
20260901074818 82 254 3.0 7.0 0.00 0.00 0.00 68 1015.5
20260901074054 81 269 3.0 6.0 0.00 0.00 0.00 69 1015.5
20260901073555 81 264 4.0 7.0 0.00 0.00 0.00 70 1015.5
20260901073054 81 261 4.0 8.0 0.00 0.00 0.00 71 1015.5
20260901072552 81 283 5.0 9.0 0.00 0.00 0.00 71 1015.5
20260901072052 81 260 4.0 9.0 0.00 0.00 0.00 71 1015.4
20260901071552 82 250 3.0 7.0 0.00 0.00 0.00 68 1015.4
20260901071045 82 250 3.0 7.0 0.00 0.00 0.00 67 1015.4
20260901070540 82 248 4.0 7.0 0.00 0.00 0.00 68 1015.3
20260901070033 82 260 4.0 7.0 0.00 0.00 0.00 68 1015.3
20260901065528 82 265 2.0 5.0 0.00 0.00 0.00 66 1015.2
20260901065022 83 268 1.0 4.0 0.00 0.00 0.00 62 1015.2
20260901064516 84 236 0.0 2.0 0.00 0.00 0.00 58 1015.2
20260901064010 84 163 0.0 1.0 0.00 0.00 0.00 60 1015.2
20260901063504 83 146 0.0 3.0 0.00 0.00 0.00 62 1015.1
20260901062957 83 79 1.0 3.0 0.00 0.00 0.00 62 1015.0
20260901062452 82 114 1.0 2.0 0.00 0.00 0.00 64 1015.1
20260901061946 81 112 1.0 3.0 0.00 0.00 0.00 66 1015.1
20260901061439 81 51 1.0 3.0 0.00 0.00 0.00 67 1015.1
20260901060934 81 30 1.0 3.0 0.00 0.00 0.00 68 1015.1
20260901060427 80 30 1.0 4.0 0.00 0.00 0.00 70 1015.2
20260901055922 79 19 1.0 4.0 0.00 0.00 0.00 72 1015.3
20260901055416 79 300 2.0 4.0 0.00 0.00 0.00 72 1015.3
20260901054910 78 296 3.0 4.0 0.00 0.00 0.00 73 1015.3
20260901054404 78 304 2.0 6.0 0.00 0.00 0.00 73 1015.3
20260901053857 78 6 2.0 6.0 0.00 0.00 0.00 74 1015.3
20260901053352 78 289 3.0 5.0 0.00 0.00 0.00 76 1015.3
20260901053103 77 297 3.0 6.0 0.00 0.00 0.00 76 1015.3
20260901052340 77 315 4.0 6.0 0.00 0.00 0.00 77 1015.3
20260901051834 77 301 4.0 6.0 0.00 0.00 0.00 78 1015.3
20260901051547 77 315 4.0 6.0 0.00 0.00 0.00 78 1015.3
20260901050823 77 293 4.0 6.0 0.00 0.00 0.00 78 1015.2
20260901050316 77 314 4.0 7.0 0.00 0.00 0.00 78 1015.3
20260901045810 77 281 3.0 7.0 0.00 0.00 0.00 78 1015.3
20260901045306 76 274 4.0 8.0 0.00 0.00 0.00 77 1015.2
20260901045006 77 294 3.0 9.0 0.00 0.00 0.00 77 1015.1
20260901044841 77 279 4.0 9.0 0.00 0.00 0.00 78 1015.1
20260901044007 77 255 4.0 6.0 0.00 0.00 0.00 78 1015.0
20260901043240 77 257 4.0 7.0 0.00 0.00 0.00 79 1014.9
20260901042734 77 277 3.0 7.0 0.00 0.00 0.00 78 1014.9
20260901042227 78 272 2.0 5.0 0.00 0.00 0.00 76 1014.8
20260901041945 77 253 1.0 2.0 0.00 0.00 0.00 76 1014.7
20260901041216 77 99 0.0 1.0 0.00 0.00 0.00 68 1014.7
20260901040710 77 99 0.0 1.0 0.00 0.00 0.00 68 1014.6
20260901040424 77 99 0.0 1.0 0.00 0.00 0.00 68 1014.5
20260901035658 77 99 0.0 1.0 0.00 0.00 0.00 67 1014.5
20260901035151 77 99 0.0 0.0 0.00 0.00 0.00 68 1014.3
20260901034645 77 99 0.0 0.0 0.00 0.00 0.00 68 1014.4
20260901034140 77 99 0.0 0.0 0.00 0.00 0.00 67 1014.3
20260901033633 77 99 0.0 1.0 0.00 0.00 0.00 67 1014.3
20260901033127 78 99 0.0 0.0 0.00 0.00 0.00 67 1014.3
20260901032845 78 99 0.0 2.0 0.00 0.00 0.00 67 1014.2
20260901032115 78 99 1.0 3.0 0.00 0.00 0.00 67 1014.2
20260901031609 78 99 2.0 3.0 0.00 0.00 0.00 67 1014.2
20260901031108 78 101 2.0 2.0 0.00 0.00 0.00 67 1014.2
20260901030608 77 99 1.0 2.0 0.00 0.00 0.00 67 1014.3
20260901030108 77 99 1.0 2.0 0.00 0.00 0.00 67 1014.3
20260901025608 77 94 1.0 2.0 0.00 0.00 0.00 68 1014.4
20260901025106 77 94 1.0 2.0 0.00 0.00 0.00 67 1014.5
20260901024603 77 94 1.0 2.0 0.00 0.00 0.00 68 1014.5
20260901024101 77 94 0.0 1.0 0.00 0.00 0.00 69 1014.4
20260901023600 77 94 0.0 1.0 0.00 0.00 0.00 69 1014.4
20260901023101 77 94 0.0 1.0 0.00 0.00 0.00 68 1014.4
20260901022600 77 94 0.0 1.0 0.00 0.00 0.00 68 1014.5
20260901022057 78 94 1.0 2.0 0.00 0.00 0.00 68 1014.4
20260901021558 78 94 1.0 2.0 0.00 0.00 0.00 68 1014.4
20260901021058 78 101 0.0 2.0 0.00 0.00 0.00 70 1014.4
20260901020558 78 94 0.0 2.0 0.00 0.00 0.00 69 1014.5
20260901020058 78 94 1.0 2.0 0.00 0.00 0.00 70 1014.6
20260901015556 78 94 1.0 2.0 0.00 0.00 0.00 70 1014.6
20260901015056 78 94 1.0 1.0 0.00 0.00 0.00 70 1014.6
20260901014553 78 89 0.0 1.0 0.00 0.00 0.00 70 1014.7
20260901014055 78 89 1.0 3.0 0.00 0.00 0.00 70 1014.7
20260901013554 78 89 2.0 3.0 0.00 0.00 0.00 70 1014.7
20260901013052 78 91 1.0 3.0 0.00 0.00 0.00 70 1014.9
20260901012552 78 95 1.0 2.0 0.00 0.00 0.00 70 1014.9
20260901012052 78 72 1.0 3.0 0.00 0.00 0.00 71 1014.9
20260901011550 78 72 1.0 3.0 0.00 0.00 0.00 71 1014.9
20260901011048 78 90 1.0 3.0 0.00 0.00 0.00 71 1014.9
20260901010548 78 104 1.0 3.0 0.00 0.00 0.00 71 1014.9
20260901010048 78 90 1.0 2.0 0.00 0.00 0.00 71 1015.0
20260901005545 78 101 0.0 2.0 0.00 0.00 0.00 71 1015.0
20260901005045 78 101 0.0 1.0 0.00 0.00 0.00 70 1015.1
20260901004801 78 101 1.0 1.0 0.00 0.00 0.00 70 1015.1
20260901004531 78 101 1.0 1.0 0.00 0.00 0.00 70 1015.1
20260901003543 78 101 0.0 1.0 0.00 0.00 0.00 70 1015.1
20260901003044 78 101 0.0 0.0 0.00 0.00 0.00 70 1015.1
20260901003032 78 101 0.0 1.0 0.00 0.00 0.00 70 1015.1
20260901002040 78 101 0.0 1.0 0.00 0.00 0.00 70 1015.1
20260901001539 78 101 0.0 0.0 0.00 0.00 0.00 70 1014.9
20260901001040 78 101 0.0 1.0 0.00 0.00 0.00 69 1014.8
20260901001023 78 101 1.0 3.0 0.00 0.00 0.00 69 1014.8
20260901000040 78 101 1.0 3.0 0.00 0.00 0.00 69 1014.7
20260831235539 78 89 1.0 3.0 0.00 0.00 0.00 69 1014.6
20260831235039 78 89 1.0 3.0 0.00 0.00 0.00 69 1014.7
20260831234540 78 82 1.0 3.0 0.00 0.00 0.00 69 1014.7
20260831234039 78 96 1.0 3.0 0.00 0.00 0.00 69 1014.8
20260831233539 78 95 1.0 2.0 0.00 0.00 0.00 69 1014.8
20260831233039 78 95 0.0 1.0 0.00 0.00 0.00 69 1014.9
20260831233033 78 95 0.0 2.0 0.00 0.00 0.00 69 1015.0
20260831232040 79 95 1.0 2.0 0.00 0.00 0.00 69 1014.9
20260831231539 79 102 1.0 3.0 0.00 0.00 0.00 68 1014.9
20260831231040 79 96 1.0 3.0 0.00 0.00 0.00 68 1014.9
20260831230539 79 85 1.0 2.0 0.00 0.00 0.00 68 1015.0
20260831230041 79 89 0.0 2.0 0.00 0.00 0.00 68 1015.0
20260831225534 79 89 0.0 2.0 0.00 0.00 0.00 68 1015.1
20260831225028 79 89 1.0 2.0 0.00 0.00 0.00 68 1015.1
20260831224521 79 89 1.0 2.0 0.00 0.00 0.00 68 1015.1
20260831224014 80 89 0.0 2.0 0.00 0.00 0.00 68 1015.2
20260831223510 80 89 0.0 1.0 0.00 0.00 0.00 68 1015.2
20260831223008 80 89 1.0 2.0 0.00 0.00 0.00 67 1015.1
20260831222507 80 89 2.0 2.0 0.00 0.00 0.00 67 1015.0
20260831222006 80 90 1.0 2.0 0.00 0.00 0.00 67 1015.0
20260831221721 80 108 1.0 3.0 0.00 0.00 0.00 67 1015.0
20260831221003 80 148 1.0 3.0 0.00 0.00 0.00 67 1015.0
20260831220459 80 105 0.0 2.0 0.00 0.00 0.00 68 1015.0
20260831215957 80 150 0.0 1.0 0.00 0.00 0.00 68 1015.1
20260831215455 80 150 0.0 1.0 0.00 0.00 0.00 68 1015.2
20260831214953 80 125 0.0 1.0 0.00 0.00 0.00 67 1015.3
20260831214451 80 125 0.0 2.0 0.00 0.00 0.00 67 1015.3
20260831213951 80 137 0.0 2.0 0.00 0.00 0.00 67 1015.3
20260831213451 80 105 0.0 1.0 0.00 0.00 0.00 66 1015.3
20260831212950 80 105 0.0 1.0 0.00 0.00 0.00 66 1015.3
20260831212449 80 105 0.0 1.0 0.00 0.00 0.00 66 1015.4
20260831211946 80 105 0.0 0.0 0.00 0.00 0.00 65 1015.4
20260831211711 80 105 0.0 1.0 0.00 0.00 0.00 65 1015.3
20260831210941 80 105 0.0 1.0 0.00 0.00 0.00 65 1015.3
20260831210439 80 105 0.0 1.0 0.00 0.00 0.00 65 1015.3
20260831210157 80 105 0.0 2.0 0.00 0.00 0.00 65 1015.3
20260831205435 80 105 0.0 2.0 0.00 0.00 0.00 65 1015.3
20260831205152 80 105 1.0 2.0 0.00 0.00 0.00 65 1015.4
20260831204427 80 105 0.0 1.0 0.00 0.00 0.00 65 1015.4
20260831203921 80 105 0.0 1.0 0.00 0.00 0.00 66 1015.4
20260831203414 80 105 0.0 2.0 0.00 0.00 0.00 66 1015.5
20260831202909 80 105 0.0 2.0 0.00 0.00 0.00 66 1015.5
20260831202403 80 105 0.0 2.0 0.00 0.00 0.00 66 1015.5
20260831201857 80 105 0.0 2.0 0.00 0.00 0.00 67 1015.5
20260831201351 80 105 1.0 2.0 0.00 0.00 0.00 67 1015.4
20260831200844 80 124 0.0 1.0 0.00 0.00 0.00 67 1015.3
20260831200338 80 145 0.0 1.0 0.00 0.00 0.00 68 1015.2
20260831195834 80 210 0.0 2.0 0.00 0.00 0.00 68 1015.1
20260831195326 80 181 0.0 2.0 0.00 0.00 0.00 67 1015.1
20260831194821 80 152 0.0 2.0 0.00 0.00 0.00 67 1015.2
20260831194314 80 211 1.0 3.0 0.00 0.00 0.00 67 1015.2
20260831193809 80 137 1.0 4.0 0.00 0.00 0.00 67 1015.1
20260831193303 80 151 1.0 4.0 0.00 0.00 0.00 67 1015.0
20260831192757 80 91 1.0 4.0 0.00 0.00 0.00 68 1014.9
20260831192513 80 184 1.0 5.0 0.00 0.00 0.00 68 1015.0
20260831191746 80 211 2.0 5.0 0.00 0.00 0.00 68 1015.0
20260831191505 80 135 1.0 4.0 0.00 0.00 0.00 68 1015.0
20260831190732 80 122 2.0 6.0 0.00 0.00 0.00 68 1015.0
20260831190227 80 171 3.0 6.0 0.00 0.00 0.00 68 1014.8
20260831185720 81 81 3.0 6.0 0.00 0.00 0.00 67 1014.9
20260831185215 81 149 2.0 7.0 0.00 0.00 0.00 67 1014.9
20260831184708 81 84 2.0 7.0 0.00 0.00 0.00 66 1014.9
20260831184202 81 136 3.0 6.0 0.00 0.00 0.00 66 1014.8
20260831183656 81 219 3.0 7.0 0.00 0.00 0.00 66 1014.8
20260831183410 81 154 3.0 9.0 0.00 0.00 0.00 66 1014.8
20260831182644 81 75 2.0 9.0 0.00 0.00 0.00 65 1014.8
20260831182138 81 108 1.0 7.0 0.00 0.00 0.00 65 1014.7
20260831181633 81 146 2.0 6.0 0.00 0.00 0.00 65 1014.7
20260831181127 81 133 3.0 7.0 0.00 0.00 0.00 65 1014.7
20260831180620 81 143 4.0 10.0 0.00 0.00 0.00 65 1014.7
20260831180115 81 274 3.0 10.0 0.00 0.00 0.00 65 1014.6
20260831175609 82 172 2.0 8.0 0.00 0.00 0.00 65 1014.6
20260831175102 82 216 3.0 8.0 0.00 0.00 0.00 65 1014.5
20260831174823 82 204 3.0 9.0 0.00 0.00 0.00 65 1014.4
20260831174051 82 148 3.0 9.0 0.00 0.00 0.00 65 1014.3
20260831173545 82 216 3.0 7.0 0.00 0.00 0.00 64 1014.3
20260831173039 82 118 3.0 7.0 0.00 0.00 0.00 65 1014.3
20260831172533 82 129 3.0 9.0 0.00 0.00 0.00 65 1014.3
20260831172251 82 214 3.0 9.0 0.00 0.00 0.00 65 1014.2
20260831171520 82 89 2.0 7.0 0.00 0.00 0.00 65 1014.1
20260831171014 83 84 3.0 7.0 0.00 0.00 0.00 65 1014.0
20260831170508 83 101 3.0 7.0 0.00 0.00 0.00 65 1014.0
20260831170004 83 144 3.0 8.0 0.00 0.00 0.00 64 1014.0
20260831165456 83 171 4.0 11.0 0.00 0.00 0.00 63 1014.0
20260831165215 83 107 4.0 11.0 0.00 0.00 0.00 63 1014.0
20260831164705 83 205 4.0 9.0 0.00 0.00 0.00 63 1013.9
20260831163938 84 234 4.0 8.0 0.00 0.00 0.00 63 1013.9
20260831163433 84 196 4.0 9.0 0.00 0.00 0.00 63 1013.8
20260831162927 84 236 4.0 10.0 0.00 0.00 0.00 62 1013.8
20260831162425 85 182 5.0 10.0 0.00 0.00 0.00 60 1013.8
20260831161925 85 143 4.0 10.0 0.00 0.00 0.00 60 1013.7
20260831161644 85 198 4.0 10.0 0.00 0.00 0.00 60 1013.6
20260831161155 86 141 4.0 8.0 0.00 0.00 0.00 59 1013.7
20260831160643 86 188 5.0 10.0 0.00 0.00 0.00 59 1013.7
20260831155925 86 122 5.0 10.0 0.00 0.00 0.00 59 1013.7
20260831155424 86 173 4.0 10.0 0.00 0.00 0.00 59 1013.6
20260831154925 87 245 4.0 10.0 0.00 0.00 0.00 58 1013.7
20260831154425 87 236 5.0 10.0 0.00 0.00 0.00 57 1013.8
20260831153925 87 176 5.0 10.0 0.00 0.00 0.00 58 1013.7
20260831153425 88 145 3.0 8.0 0.00 0.00 0.00 57 1013.8
20260831152925 88 224 4.0 10.0 0.00 0.00 0.00 56 1013.8
20260831152425 88 205 4.0 10.0 0.00 0.00 0.00 56 1013.8
20260831151925 88 122 5.0 11.0 0.00 0.00 0.00 54 1013.8
20260831151425 88 192 5.0 11.0 0.00 0.00 0.00 53 1013.8
20260831150925 88 235 5.0 11.0 0.00 0.00 0.00 52 1013.9
20260831150425 89 243 4.0 11.0 0.00 0.00 0.00 51 1013.9
20260831145925 89 245 4.0 10.0 0.00 0.00 0.00 51 1013.8
20260831145645 89 99 4.0 10.0 0.00 0.00 0.00 51 1013.8
20260831144926 89 201 3.0 9.0 0.00 0.00 0.00 50 1013.8
20260831144425 89 237 4.0 13.0 0.00 0.00 0.00 51 1013.8
20260831143925 89 176 5.0 13.0 0.00 0.00 0.00 51 1013.9
20260831143425 89 211 5.0 11.0 0.00 0.00 0.00 52 1013.9
20260831142923 89 212 6.0 13.0 0.00 0.00 0.00 52 1013.9
20260831142423 89 290 5.0 13.0 0.00 0.00 0.00 51 1014.0
20260831141922 89 217 5.0 11.0 0.00 0.00 0.00 50 1014.0
20260831141421 89 207 4.0 10.0 0.00 0.00 0.00 49 1014.0
20260831140921 90 186 4.0 10.0 0.00 0.00 0.00 49 1014.0
20260831140422 89 201 4.0 10.0 0.00 0.00 0.00 50 1014.1
20260831135919 90 267 4.0 8.0 0.00 0.00 0.00 48 1014.1
20260831135417 90 289 4.0 11.0 0.00 0.00 0.00 48 1014.1
20260831134917 90 256 3.0 11.0 0.00 0.00 0.00 47 1014.1
20260831134417 90 171 4.0 9.0 0.00 0.00 0.00 48 1014.2
20260831133919 89 213 5.0 11.0 0.00 0.00 0.00 49 1014.2
20260831133414 89 205 5.0 11.0 0.00 0.00 0.00 47 1014.4
20260831132915 89 230 5.0 11.0 0.00 0.00 0.00 49 1014.3
20260831132413 89 191 6.0 11.0 0.00 0.00 0.00 49 1014.3
20260831131912 89 164 6.0 13.0 0.00 0.00 0.00 48 1014.3
20260831131412 89 217 5.0 13.0 0.00 0.00 0.00 47 1014.4
20260831130913 90 203 3.0 10.0 0.00 0.00 0.00 47 1014.4
20260831130411 90 225 3.0 7.0 0.00 0.00 0.00 48 1014.5
20260831130351 90 257 3.0 11.0 0.00 0.00 0.00 49 1014.6
20260831125409 89 215 3.0 11.0 0.00 0.00 0.00 49 1014.6
20260831124908 89 242 4.0 10.0 0.00 0.00 0.00 51 1014.6
20260831124408 89 212 5.0 10.0 0.00 0.00 0.00 51 1014.7
20260831123908 88 103 5.0 10.0 0.00 0.00 0.00 53 1014.8
20260831123408 89 185 5.0 10.0 0.00 0.00 0.00 52 1014.8
20260831122904 88 212 5.0 11.0 0.00 0.00 0.00 53 1014.9
20260831122405 88 193 5.0 11.0 0.00 0.00 0.00 51 1014.9
20260831121905 88 257 4.0 10.0 0.00 0.00 0.00 53 1015.0
20260831121629 87 192 5.0 12.0 0.00 0.00 0.00 56 1015.0
20260831120904 87 191 5.0 12.0 0.00 0.00 0.00 57 1015.1
20260831120405 87 203 6.0 11.0 0.00 0.00 0.00 58 1015.1
20260831115905 87 183 6.0 11.0 0.00 0.00 0.00 58 1015.2
20260831115404 87 231 5.0 11.0 0.00 0.00 0.00 56 1015.3